Find Starlink 35677

NORAD ID: 66220 Int'l Des: 2025-244 Owner: SPXS Country: US Constellation: starlink operational
LEOCIRCULAR

現在のビュー

3D地球を読み込み中...

About Starlink 35677

Starlink 35677 (NORAD 66220) is a starlink constellation satellite (v2 mini) launched Oct 28, 2025 by SPXS of US. It operates in LEO, CIRCULAR orbit with a mass of 575.00 kg.

Starlink 35677について

説明を読み込み中...

次回通過

Passes for default location (London). Set your location on the main map for personalized predictions.

高度履歴

Loading altitude history...

軌道要素

1 66220U 25244Q 26199.71250063 .00010816 00000-0 33085-3 0 9992
2 66220 53.1610 339.6304 0000892 81.8273 278.2831 15.34394749 41746
Epoch: Jul 18, 2026 • Age: 23 hours

現在のステータス

高度 465.2 km
遠地点 / 近地点 N/A
速度 7.63 km/s
衛星直下点 -9.02°S, 143.3°E
打ち上げ日 Oct 28, 2025
運用期間 0.7 years
タイプ internet

技術仕様

分類 Payload
質量 575.00 kg
乾燥質量 530.00 kg
総質量 575.00 kg
長さ 0.30 m
直径 4.10 m
スパン 29.00 m
形状 Box + pan
製造者 SPXS
バスタイプ Starlink V2MO
フェーズステータス In Orbit
所有者/国 SPXS/US

Most Searched